Terminal Aerodrome Forecast
Issued by NWS

Home | Current Version | Previous Version | Text Only | Print | Product List | Glossary On
Versions: 1 2 3 4 5 6 7 8 9 10 11 12 13
000
FTUS45 KRIW 292300
TAFJAC
TAF
KJAC 292332Z 3000/3024 19009KT P6SM SCT090
     FM300200 VRB06KT P6SM VCSH SCT090 BKN120
     FM301200 VRB06KT P6SM -SHRA BKN060
     FM301500 21011KT P6SM VCSH SCT060 BKN090
     FM302000 21016G26KT P6SM VCTS SCT060CB BKN090
      AMD LTD TO CLD VIS AND WIND=

USA.gov is the U.S. government's official web portal to all federal, state and local government web resources and services.